Location: Brooks Farm Pond
(32.9618°N, 86.0700°W)
Time: 21:38:19
(UTC+00:00)

SAR-Lupe-1 - Pass Details

Date: 29 October 2020
Orbit: 480 x 485 km, 98.2° (Epoch: 26 November)

Event Time Altitude Azimuth Distance (km) Brightness Sun altitude
Rises 23:42:38 0° 9° (N) 2,547 7.5 -10.5°
Reaches altitude 10° 23:44:43 10° 7° (N) 1,664 6.6 -10.9°
Maximum altitude 23:48:16 70° 284° (WNW) 517 4.4 -11.7°
Drops below altitude 10° 23:51:48 10° 200° (SSW) 1,655 7.2 -12.4°
Sets 23:53:51 0° 198° (SSW) 2,532 8.1 -12.8°
